Temp
13 15 16 15 16 17 17 17 17 18 18 17 17 17 17 17 17 17 17 17 17 18 18 18 17 17 17 17 17 18 19 19 19 19 19 19 19 18 19 19 19 19 19
13 14 16 16 16 16 16 17 17 18 17 17 17 17 17 17 17 17 17 17 17 17 17 17 17 17 17 17 17 18 19 19 19 19 19 19 19 19 19 19 19 19 19
13 13 14 15 15 16 16 16 16 16 16 16 16 16 16 16 16 16 16 15 16 16 16 16 16 16 16 17 16 18 19 20 20 20 19 19 19 18 18 18 18 18 19
12 13 13 14 14 14 14 15 15 15 15 15 15 15 15 14 14 14 14 14 14 14 15 15 15 15 16 16 16 16 19 19 19 19 20 19 18 18 18 18 18 18 18
12 12 13 13 13 13 13 13 13 13 14 14 13 14 13 13 13 13 13 13 13 13 14 14 14 14 14 15 15 17 18 18 19 19 19 19 19 18 17 17 18 18 18
11 12 11 12 12 12 12 12 13 13 13 13 13 12 12 12 12 12 12 12 12 13 13 13 13 13 14 15 16 16 17 17 18 18 18 19 18 18 17 17 17 17 18
11 11 11 11 11 11 11 11 12 12 12 12 12 12 11 11 11 11 11 12 12 12 12 13 13 13 13 13 15 16 16 17 17 17 17 18 18 17 17 17 16 17 17
11 11 11 10 10 10 10 11 11 11 11 11 11 11 11 11 11 11 11 11 11 12 12 12 12 12 13 13 14 15 16 16 17 16 16 17 17 16 16 16 16 16 16
11 11 11 11 11 10 10 10 10 11 11 11 11 10 10 10 10 10 10 10 11 11 11 11 11 11 11 12 13 14 15 15 16 15 15 16 15 15 15 15 15 16 16
10 11 11 10 11 11 9 10 9 9 9 10 10 10 10 10 10 10 11 9 9 10 10 10 10 11 13 13 12 13 14 15 15 15 14 14 14 15 15 14 14 15 15
10 10 10 10 10 10 10 9 9 10 10 10 10 10 10 10 10 10 8 8 8 8 8 8 8 9 11 12 12 12 13 13 13 14 14 14 13 14 14 14 14 14 14
9 9 10 10 10 10 9 9 9 10 10 10 10 10 10 9 9 8 9 9 10 10 10 9 10 10 10 10 10 11 11 11 12 12 12 12 12 12 13 13 13 13 14
8 8 9 9 9 9 9 9 9 9 10 10 10 9 9 9 9 8 8 8 9 8 8 8 8 8 8 8 8 9 9 9 10 11 11 11 10 11 12 12 13 13 13
8 8 8 8 9 8 9 9 9 9 9 9 9 9 9 8 8 7 7 7 7 7 7 6 6 7 7 7 7 8 8 8 8 9 10 10 10 9 10 11 12 12 13
7 7 7 8 8 8 8 8 8 8 8 8 9 9 9 8 7 6 6 6 6 6 5 5 5 6 6 6 7 7 7 7 8 8 9 9 8 8 9 10 11 12 13
7 7 7 7 8 8 8 8 7 7 7 7 7 7 7 6 6 5 5 5 5 4 4 4 4 4 4 5 5 6 6 6 7 7 7 8 7 8 8 9 10 11 12
7 7 6 7 7 7 7 6 6 6 6 6 6 5 5 6 5 5 4 4 4 4 4 4 3 3 3 3 4 4 4 5 5 6 6 6 7 8 8 9 9 9 9
6 6 6 6 6 6 6 6 5 5 5 5 5 5 5 5 4 4 3 3 3 3 2 2 2 2 2 2 2 3 4 5 5 6 6 6 6 7 8 7 7 7 8
6 6 5 6 6 6 5 5 5 5 5 5 4 4 4 3 3 3 3 2 2 2 2 1 1 1 1 1 1 2 4 4 4 4 5 5 6 7 7 6 6 7 7
6 5 5 5 5 5 5 5 5 4 4 4 4 3 3 3 3 2 2 2 2 1 1 1 1 1 -0 -0 0 1 3 5 4 3 4 5 5 5 5 5 5 6 6
5 5 5 5 5 5 5 4 4 4 3 3 2 2 2 2 2 2 2 1 1 0 -0 -0 -0 -0 -1 -1 -1 -0 2 4 3 4 3 4 4 4 4 4 4 4 4
5 4 4 4 4 4 5 4 4 4 3 2 2 2 2 1 1 1 1 1 0 -0 -1 -1 -1 -1 -1 -2 -2 -1 -2 1 3 3 2 2 2 2 2 2 2 2 3
4 4 4 4 4 4 5 4 4 3 3 2 2 1 1 1 0 0 0 -0 -0 -1 -1 -1 -2 -2 -2 -2 -2 -2 -2 -2 -2 0 1 1 0 1 0 0 0 0 1
3 4 3 3 3 3 3 3 3 3 2 2 1 1 1 0 0 -0 -0 -1 -1 -1 -2 -2 -2 -2 -3 -3 -3 -2 -3 -2 -3 -3 -0 -0 -2 -1 -1 -1 -1 -1 -1
4 4 3 3 2 2 2 3 3 2 2 1 1 1 0 0 -0 -0 -1 -1 -1 -2 -2 -3 -3 -3 -3 -3 -3 -3 -4 -3 -3 -3 -3 -2 -3 -3 -3 -2 -2 -2 -2
4 3 2 2 1 1 2 2 2 1 1 0 0 -0 -1 -1 -1 -1 -2 -2 -2 -3 -3 -3 -3 -3 -4 -4 -4 -4 -4 -4 -4 -4 -4 -4 -4 -4 -3 -3 -3 -3 -3
Height
839 835 835 833 832 831 832 831 831 828 827 830 831 831 830 830 830 830 830 830 830 829 829 828 828 827 826 825 823 822 822 822 821 820 820 819 819 819 819 818 819 819 818
840 836 833 834 833 831 832 831 830 828 830 832 832 832 832 832 832 832 831 831 830 830 830 829 829 828 828 827 825 824 823 823 823 822 822 822 821 820 820 820 821 821 820
841 838 831 831 830 830 832 831 831 830 832 832 833 833 834 835 835 834 834 834 833 832 832 832 831 830 829 828 827 826 825 824 824 823 823 823 822 822 822 822 822 822 822
839 836 836 837 835 837 835 835 836 836 836 835 835 836 837 837 837 836 836 835 835 834 835 834 832 831 830 829 829 828 827 826 825 825 825 824 824 824 824 822 823 823 823
838 838 839 839 838 840 838 838 838 838 838 837 838 839 840 840 840 840 838 837 837 836 836 835 834 833 832 830 830 829 828 827 826 826 826 826 825 825 825 824 824 823 824
839 836 839 838 841 841 840 840 839 839 839 840 841 841 842 841 842 841 839 837 837 836 837 836 835 834 833 831 830 830 829 828 827 826 826 826 826 826 825 825 824 823 823
839 842 843 842 839 839 841 840 840 839 841 842 842 843 842 842 841 841 840 838 839 838 839 839 837 836 835 834 832 830 829 829 829 827 827 827 826 826 826 825 824 823 823
838 839 839 840 838 842 842 841 842 842 843 845 844 844 843 842 841 841 840 840 841 840 840 840 839 837 837 834 832 831 829 829 829 828 828 827 827 826 825 824 824 823 823
838 840 841 840 840 842 841 843 843 844 845 845 845 844 842 843 842 842 841 840 842 839 839 840 838 837 836 835 832 831 829 830 829 828 828 827 827 827 826 824 823 822 822
837 839 841 841 841 843 843 844 843 843 844 843 845 842 843 842 841 841 840 840 840 840 839 839 837 837 834 833 833 830 830 829 829 828 828 827 827 826 825 824 823 821 820
837 838 840 841 843 845 842 842 842 842 842 842 843 844 843 842 841 841 842 841 841 840 839 837 838 835 836 833 831 829 829 828 828 827 827 826 825 825 824 823 821 820 819
835 836 838 839 841 842 843 843 842 842 844 843 843 843 843 842 842 843 842 841 839 838 837 837 837 835 836 834 831 830 828 828 826 826 825 823 824 823 821 820 819 818 817
834 838 839 840 840 841 843 842 842 841 843 842 842 842 841 842 842 842 843 841 838 838 839 838 837 836 835 833 829 828 828 827 826 824 822 822 821 819 818 818 817 815 814
832 835 836 838 838 839 840 841 839 842 843 841 841 842 842 843 843 843 842 841 839 838 840 840 838 836 834 831 829 828 827 826 824 823 821 819 817 817 816 815 813 812 811
828 831 833 834 836 836 839 841 841 842 842 839 840 841 842 844 845 845 843 841 839 842 843 840 837 834 833 830 828 827 825 824 822 820 817 816 815 815 814 812 811 810 809
825 828 831 833 834 836 838 839 839 840 840 841 843 844 844 845 845 843 842 843 844 845 841 838 836 835 833 831 829 827 825 823 821 819 815 813 813 812 811 809 808 807 806
822 825 829 830 832 834 837 838 838 840 842 843 845 845 845 845 844 844 845 845 843 840 838 837 837 835 832 830 828 826 823 820 817 815 814 813 811 810 810 809 807 806 805
820 823 827 828 830 833 836 837 839 842 843 844 846 846 845 845 844 844 843 841 840 840 839 837 835 832 830 828 825 823 820 816 815 813 812 812 812 810 809 807 806 804 803
817 821 824 826 828 832 835 837 840 841 843 844 844 845 845 845 844 843 842 841 841 839 837 836 834 832 830 827 823 820 817 813 813 813 812 812 811 810 808 805 804 803 801
814 819 821 823 826 830 833 836 839 841 841 842 843 844 845 844 843 843 842 841 839 838 836 835 834 832 830 827 822 817 813 811 810 810 810 809 811 809 807 805 802 801 799
811 815 818 821 824 827 830 833 836 838 840 843 844 844 844 843 842 842 841 839 838 837 837 836 833 831 829 826 820 813 807 806 805 806 807 807 808 807 805 803 801 799 796
805 811 815 819 822 826 828 832 834 837 841 842 843 843 843 842 842 841 839 838 838 837 837 836 834 831 829 828 827 821 814 807 807 806 806 806 806 804 803 800 798 795 793
800 806 812 816 820 823 827 830 834 837 840 841 842 842 842 842 841 840 839 837 837 837 836 835 833 831 830 828 829 832 828 823 816 805 807 806 804 803 799 797 795 792 790
795 804 809 814 818 822 825 828 830 833 836 838 840 840 841 841 840 838 837 837 837 836 835 833 831 830 830 829 828 830 832 831 825 809 807 805 805 803 797 793 792 789 785
791 799 805 811 816 820 823 826 828 831 834 836 837 838 839 839 837 836 836 837 836 835 833 832 830 829 829 829 829 828 828 826 824 819 800 800 801 797 795 794 791 785 780
789 797 803 808 814 818 821 824 826 828 831 833 834 836 836 836 835 835 836 836 835 833 832 830 829 829 828 827 827 827 826 825 822 819 809 799 792 789 789 787 784 782 777
Wind_Speed
23 22 5 6 9 13 12 12 11 16 20 18 17 18 19 20 21 21 20 19 18 18 18 18 18 18 17 17 17 18 18 18 17 15 15 13 11 12 12 11 10 11 12
22 28 8 10 13 16 16 16 17 21 22 21 22 22 23 23 23 22 22 22 23 23 20 18 17 17 17 17 17 15 15 16 18 11 12 13 13 12 11 10 8 8 9
19 22 25 28 23 19 19 23 23 24 24 25 25 25 25 24 24 24 22 22 22 21 22 22 21 19 17 17 17 16 14 15 19 15 13 11 14 13 12 11 7 6 7
18 21 20 22 22 20 21 22 22 23 22 23 23 23 22 21 21 21 21 22 22 22 20 19 18 18 19 19 17 17 15 15 17 16 14 12 11 13 13 10 10 6 5
14 17 18 18 19 19 21 21 21 22 22 24 23 23 22 21 20 20 20 20 20 20 19 20 19 19 19 19 19 18 16 13 14 11 9 10 9 12 12 12 10 6 5
12 13 15 17 18 19 20 20 21 21 21 21 21 20 20 20 20 20 20 21 20 21 20 19 19 18 19 18 17 17 17 16 15 17 8 7 8 10 10 10 10 10 7
10 11 15 15 18 18 18 19 20 20 19 19 19 19 19 19 19 20 20 20 21 20 20 20 20 19 19 19 18 17 17 16 17 14 12 9 10 10 11 10 10 9 10
11 9 11 14 17 16 17 18 19 18 18 17 17 18 18 19 19 20 21 21 20 20 19 19 19 19 18 19 17 14 13 11 14 19 15 11 12 14 14 13 12 12 11
13 12 8 10 12 14 17 17 17 17 18 17 17 17 18 17 19 19 20 21 19 20 20 19 20 19 18 18 16 12 11 10 10 15 16 15 16 16 16 16 16 15 13
15 15 14 11 8 11 14 15 16 17 16 17 16 17 18 17 17 18 18 20 19 20 20 19 19 18 15 15 16 14 12 10 9 11 12 14 17 16 16 17 17 18 17
14 15 15 15 12 10 11 13 14 15 16 17 16 14 14 15 15 16 18 17 18 18 19 19 19 19 17 15 15 15 14 15 13 11 11 13 17 16 17 18 18 17 17
14 14 12 13 14 12 12 12 11 13 14 14 13 13 14 14 15 15 15 17 18 18 18 18 18 17 17 17 16 16 15 15 15 14 14 16 18 18 18 19 19 19 19
17 15 16 15 15 14 13 12 12 12 13 14 13 13 13 14 14 14 14 16 18 19 19 19 19 20 19 19 19 19 18 18 17 16 17 18 19 20 19 20 20 20 20
20 17 15 16 16 15 13 12 12 12 12 14 15 13 13 14 14 14 15 16 18 19 19 19 19 20 20 20 20 20 20 19 20 21 21 21 20 21 21 21 21 20 20
22 19 17 16 17 16 14 13 13 12 11 13 13 14 13 13 13 12 13 17 18 16 16 18 20 22 22 23 22 22 22 21 23 24 23 21 19 19 19 20 20 20 19
22 20 19 18 18 17 16 13 13 12 11 11 12 12 13 13 12 13 14 15 15 15 16 19 20 21 21 21 21 21 21 23 23 23 20 19 20 18 19 19 19 18 17
25 23 21 20 18 18 16 15 14 13 11 10 10 10 11 12 12 12 12 14 16 17 17 18 18 19 21 22 23 21 23 25 25 19 16 18 18 16 17 17 15 14 15
27 26 23 23 21 19 17 16 15 12 11 10 9 9 9 11 11 10 12 14 15 15 16 17 19 22 23 24 25 25 26 25 16 14 15 13 13 17 17 17 15 14 15
28 27 24 23 21 20 18 17 15 13 11 9 8 8 8 9 10 11 12 12 12 14 16 18 19 22 23 27 25 22 28 18 13 14 8 15 15 14 16 15 16 17 18
29 27 25 24 22 21 19 17 15 12 10 7 7 6 7 8 9 10 10 11 13 16 17 19 20 22 19 28 23 22 23 15 17 5 17 23 16 15 19 20 21 21 22
30 28 26 25 23 22 22 20 17 14 10 8 6 4 7 8 9 10 11 12 14 17 17 18 21 23 20 30 18 26 20 26 5 9 36 25 18 27 20 23 28 28 25
34 31 28 26 24 22 21 20 18 16 10 10 5 4 7 8 9 11 12 13 15 16 16 17 19 20 16 25 16 10 5 11 6 36 16 23 26 15 33 23 22 20 21
35 34 29 26 24 23 22 20 16 14 15 10 5 4 6 6 8 10 12 13 14 15 15 15 16 18 18 22 20 6 4 3 23 9 31 14 15 31 23 26 31 29 26
34 32 29 26 23 20 19 19 18 15 15 6 5 4 4 4 6 8 10 11 13 14 15 16 16 17 17 18 22 9 15 18 4 7 1 16 27 17 33 29 29 29 31
37 35 31 26 22 20 18 17 17 15 12 9 5 3 3 3 6 7 8 11 14 15 15 16 18 19 18 18 18 20 20 20 22 11 14 8 27 22 22 23 25 29 28
37 34 32 27 22 21 19 17 16 14 11 8 5 3 2 5 7 8 10 13 14 16 17 17 17 18 18 19 20 20 19 14 17 16 14 21 23 26 24 23 23 25 27
Wind_Direction
20 29 18 30 86 84 92 101 103 87 82 87 86 83 79 74 70 67 62 61 63 63 60 58 55 52 49 46 47 56 63 61 55 58 60 57 65 65 62 67 66 70 68
34 33 51 123 102 89 85 81 80 83 83 82 81 76 72 68 64 62 58 55 53 52 50 54 55 52 48 44 41 50 61 57 44 56 64 61 60 60 58 59 62 67 65
61 44 40 68 76 80 75 71 71 76 75 71 71 67 65 64 62 61 59 55 53 49 44 44 48 47 46 46 40 43 48 51 46 67 61 51 50 44 46 45 52 53 53
71 61 57 67 70 71 73 72 71 73 71 70 67 66 66 62 60 59 57 54 50 50 46 44 44 46 42 40 38 33 49 50 49 50 44 43 37 34 38 35 40 38 28
86 83 72 71 74 74 74 74 74 72 71 70 71 69 67 66 62 60 59 59 54 52 47 44 41 38 36 36 32 37 36 42 46 52 41 25 24 31 28 24 24 12 351
104 93 74 73 78 75 76 77 78 77 75 75 75 73 69 68 64 62 58 54 52 49 43 42 39 37 35 37 37 37 34 31 45 45 49 36 28 14 15 15 9 9 340
111 109 95 85 80 76 78 77 76 76 75 73 73 71 70 66 63 59 56 54 49 46 41 35 34 31 30 28 32 36 33 35 35 42 44 39 27 23 17 6 358 357 358
115 93 80 81 83 83 81 79 78 77 77 78 74 71 68 64 61 59 55 52 49 48 43 39 37 35 30 27 27 38 41 37 35 38 15 16 11 10 9 9 358 350 346
126 113 111 89 84 87 81 82 81 80 77 76 74 68 68 63 60 57 55 50 45 44 42 37 35 32 32 27 28 28 29 26 28 35 24 17 3 4 2 357 354 356 344
140 138 118 118 100 93 96 86 84 80 80 77 73 69 72 68 59 56 56 48 44 39 38 33 31 25 28 22 24 26 20 11 12 15 25 4 6 359 354 350 346 344 340
149 144 143 136 126 113 104 98 93 89 95 98 94 84 77 71 61 54 50 51 45 40 36 35 28 27 25 26 22 21 14 12 2 353 345 343 351 348 345 340 337 334 330
149 155 157 148 141 135 124 118 112 100 97 99 97 88 79 73 68 58 49 44 41 39 34 31 26 25 20 18 17 12 9 358 353 346 339 342 344 339 334 333 331 328 324
155 157 158 151 147 145 139 131 118 104 95 94 91 85 79 75 66 56 45 39 35 32 27 25 21 20 15 13 9 6 359 354 347 338 333 331 335 333 330 327 324 323 320
165 159 153 155 146 144 139 133 116 110 99 91 86 82 76 71 64 53 42 34 30 28 22 19 16 14 13 11 7 0 356 351 345 340 333 330 328 330 328 324 321 320 319
164 162 158 155 156 150 149 138 128 117 103 86 80 73 67 64 62 55 43 33 30 27 22 17 15 12 9 7 5 0 356 352 346 344 339 340 338 333 329 326 323 322 319
170 164 163 162 158 157 150 142 128 120 106 96 83 77 69 64 62 53 41 33 32 28 24 19 13 10 7 4 360 357 352 345 345 336 335 337 340 339 336 336 331 328 325
178 170 171 163 158 154 149 142 131 125 122 107 90 80 68 61 57 54 43 33 29 25 20 14 11 8 5 2 356 356 345 344 343 347 1 0 349 351 358 7 9 1 352
178 175 170 165 162 157 151 143 139 136 127 114 98 80 64 55 54 53 41 33 26 22 16 14 9 5 4 360 355 347 346 348 4 6 357 359 4 347 345 354 3 353 351
184 178 173 170 165 161 156 150 147 142 136 121 99 83 63 51 49 45 38 32 24 22 19 14 10 7 3 358 348 342 348 350 3 358 28 7 352 343 347 349 341 328 326
183 179 176 170 167 164 158 150 145 145 135 120 97 83 58 47 44 41 36 31 24 21 19 11 6 4 8 357 350 340 350 359 338 333 357 335 342 338 339 335 330 325 321
182 181 177 172 171 168 162 160 154 148 147 132 104 79 40 40 37 33 31 27 23 19 15 10 3 2 6 3 355 340 348 349 22 342 335 329 341 326 332 329 321 325 329
179 182 179 177 173 174 174 170 165 159 155 143 122 74 36 36 32 25 24 23 17 10 9 7 7 1 353 4 1 351 348 345 340 320 326 326 321 334 323 332 337 330 323
176 181 180 176 175 177 176 173 159 155 149 140 130 83 49 33 26 18 16 13 6 2 360 0 1 1 355 346 358 355 335 313 327 321 314 323 320 318 322 320 315 316 315
174 180 179 175 175 171 168 167 169 162 156 152 122 83 62 56 18 17 8 356 350 350 353 352 349 347 345 338 339 340 314 299 308 314 257 298 298 309 305 314 311 308 308
174 176 170 172 168 165 163 161 156 147 143 141 135 100 90 26 19 12 352 339 341 345 344 343 339 339 337 327 322 315 311 303 294 285 302 301 300 302 301 296 296 301 303
172 170 165 167 164 165 163 158 157 151 148 144 129 104 46 10 8 358 342 333 336 338 338 336 333 329 326 318 311 306 296 286 287 287 291 300 302 304 300 295 291 290 293